Timeline UpdatesTrip UpdatesNews PostsPvt PostsTravel TipsAdmin PostsConv PostsFollowed PostsChat RequestsBlog PostsPNR Posts

Disclaimer
Search
 
 
Sat Jul 26, 2014 22:43:02 ISTHomeTrainsΣChainsAtlasPNRForumGalleryNewsFAQTripsMembersLoginFeedback
No Recent News for this Train
Other Trains in the News **new
Latest...
ECoR TO CANCEL LOCAL PASSENGER TRAINS IN VIEW OF EXPECTED CYCLONE o­n 12th October 2013. The following trains are: 58417/58418 Puri-Gunupur-Puri passenger
Sat Oct 12, 2013 (09:31AM)
⇐ Return Journey: Train# 58417

58418/Gunupur-Puri Passenger (UnReserved)

Aug 04 2013 (10:22PM)
Change Departure Station:
Change Arrival Station:
Post a Train Travel TipPost a Train Travel Tip **new
Post a Comment/Question/Picture/VideoPost a Comment/Question/Picture/Video
Pantry/Catering
✕ NO Pantry Car
✕ NO Catering
Loco/Rake Reversals
KUR/Khurda Road Junction (7);
RSA - Rake Sharing
Rake/Coach Composition
This train will run with 08 coaches i.e. Two Guard cum luggage vans, 05 General Second Class coaches and One Parcel Van.
Loco
News    PNR    Forum    Time-Table    Availability    Fare Chart    Map    Arr/Dep History    Trips    Gallery    ΣChains    X/O    Timeline    
Travel Time: 5h 32m    26 halts    Distance: 208 km    Avg Speed: 37 km/hr
Type: Passenger
Zone: ECoR/East Coast
Departs @ 07:00
Platform# ???
SMTWTFS
Gunupur/GNPR 
Arrives @ 12:32
Platform# ???
SMTWTFS
Narasimhapura/NRSP 

26 halts. 26 intermediate Stations between Gunupur and Narasimhapura

Hide intermediate Stations  Show Old Time-Table

#CodeStation NameX/OArrivesAvgDepartsAvgHaltPFDay#KmSpeedElevZoneAddress
1GNPR»Gunupur»  -07:00---10.03892mECoRGunupur, Odisha
2PLSGPalasingi  07:10-07:11-1m--16.43687mECoRDistt Gajapati, Odisha
3BSDRBansadhara Halt  07:20-07:21-1m--111.73978mECoRBansadhara Halt Railway Station, Odisha
4LRILihuri Halt  07:32-07:33-1m--118.83769mECoRAcross River Vamsadhara, Odisha
5KNGRKashinagar Halt  07:44-07:45-1m--125.63962mECoRKashinagar, Odisha
6HBFHadobhangi Halt  07:58-07:59-1m--134.03268mECoRParalakhemundi, Odisha
7SPRMSitapuram Halt  08:07-08:08-1m--138.43258mECoRParalakhemundi, Odisha
8PLHParlakhemundi (1)  08:31-08:32-1m1150.82960mECoRParalakhemundi, Odisha
9PHMPatapatnam  08:41-08:42-1m--155.24568mECoRSrikakulam District, Andhra Pradesh
10GVAGanguwada  08:55-08:56-1m--165.03278mECoRGanguwada, Andhra Pradesh
11TMBTemburu  09:04-09:05-1m--169.44276mECoRParalakhemundi, Andhra Pradesh
12PDSNPeddasana  09:18-09:19-1m--178.43426mECoRNational Highway 5, Andhra Pradesh
13TEKTekkali Halt  09:28-09:29-1m--183.51936mECoRTekkali, Andhra Pradesh
14NWPNaupada JunctionX  09:50-10:00-10m--190.17213mECoRNuapada . ph.no. 08945-249728, Andhra Pradesh
15RMZRouthpuram Halt  10:06-10:07-1m--197.35412mECoRSrikakulam, Andhra Pradesh
16PUNPundi  10:14-10:15-1m--1103.63738mECoRSrikakulam, Andhra Pradesh
17PSAPalasa (3)X  10:35-10:45-10m--1115.84431mECoRKasibugga, Andhra Pradesh
18SUDVSummadeviX  10:54-10:55-1m--1122.45658mECoRSummadevi, Andhra Pradesh
19MMSMandasa Road  11:02-11:03-1m--1128.97038mECoRSrikakulam, Andhra Pradesh
20BAVBaruvaX  11:11-11:12-1m--1138.37117mECoRSrikakulam, Andhra Pradesh
21SPTSompeta (4)X  11:20-11:21-1m--1147.75348mECoRKanchili, Andhra Pradesh
22JPIJhadupudiX  11:28-11:29-1m--1153.96438mECoRSrikakulam, Andhra Pradesh
23IPMIchchapuram  11:40-11:41-1m--1165.75621mECoRIchchapuram, Andhra Pradesh
24SLRDSurla Road  11:50-11:51-1m--1174.25318mECoRGanjam, Odisha
25GTAGolanthra  11:57-11:58-1m--1179.55328mECoRGanjam, Odisha
26BAMBrahmapur (3)X  12:10-12:15-5m11190.25227mECoRBerhampur, Odisha
27JNPJagan Nathapur  12:25-12:26-1m--1198.99029mECoRBerhampur, Odisha
28NRSP•Narasimhapura•O  12:32-12:33-1m--1207.93250mECoRGanjam, Odisha
29CAPChatrapurX  12:40-12:41-1m--1211.6936mECoRChatrapur, Odisha
30CAPCChatrapur Court (2)  12:47-12:48-1m--1212.56832mECoRChatrapur, Odisha
31GAMGanjamXO  12:55-12:56-1m--1220.5378mECoRGanjam, Odisha
32HMAHummaO  13:06-13:07-1m--1226.86619mECoRGanjam District, Odisha
33RBARambha  13:17-13:18-1m--1237.86714mECoRGanjam District, Odisha
34KITKhallikot (3)  13:28-13:29-1m--1249.04813mECoRKhallikot, Odisha
35KLJIKalijaiX  13:35-13:36-1m--1253.95211mECoRGarh, Odisha
36CLKAChilka  13:42-13:43-1m--1259.06225mECoRBarkul, Odisha
37BALUBalugaon (3)  13:50-13:55-5m--1266.25911mECoR752030, Odisha
38SLZSolari  14:03-14:04-1m--1274.14418mECoRSolari, Odisha
39GNGDGangadharpur  14:11-14:12-1m--1279.25322mECoRKhordha, Odisha
40KUUKuhuri  14:21-14:22-1m--1287.25026mECoRKhordha, Odisha
41KAPGKalupara GhatX  14:30-14:31-1m--1293.95210mECoRChandeswar, Odisha
42MKTPMuketashwar  14:36-14:37-1m--1298.35513mECoRKhordha, Odisha
43BSDPBhusandpur  14:43-14:44-1m--1303.83620mECoRBhushandapur, Odisha
44NKPNirakarpurX  14:56-14:57-1m--1310.94021mECoRNirakarpur, Odisha
45GLBAGolabai  15:03-15:04-1m--1314.95713mECoRKhordha, Odisha
46TAPTapang  15:09-15:10-1m--1319.64615mECoRKhordha, Odisha
47DLMHDhaulimuhan  15:15-15:16-1m--1323.55421mECoRKhordha, Odisha
48KPXRKaipadar Road  15:21-15:22-1m--1328.04022mECoRKaipada Road, Odisha
49ARGLArgul P.H.X  15:28-15:29-1m--1332.0424mECoRKhordha, Odisha
50KURKhurda Road Junction (7)XO16:45-17:20-35m51337.32025mECoRKhordha, Odisha
51HPGMHaripur Gram  17:28-17:29-1m--1339.94622mECoRKhordha, Odisha
52MWQMotari Halt  17:36-17:37-1m--1345.34212mECoRMotari, Odisha
53KASRKanas Road  17:42-17:43-1m--1348.8449mECoRKhordha, Odisha
54DEGDelangX  17:48-17:49-1m--1352.5369mECoRKhordha, Odisha
55JPRDJenapur Road  17:54-17:55-1m--1355.54510mECoRKhordha, Odisha
56BRSTBir PurushottampurXO  18:00-18:01-1m--1359.23312mECoRSatasankha, Odisha
57SILSakhi Gopal (3)XO  18:11-18:12-1m--1364.86010mECoRPuri, Odisha
58JKDPJankidaipur  18:18-18:19-1m--1370.83713mECoRChandanpur, Odisha
59MLTMalatipatpur (1)  18:24-18:25-1m11373.91015mECoRPuri, Odisha
60PURIPuri (5)  19:10----1381.2-12mECoRPuri, Odisha
Scroll to Top
Scroll to Bottom